User: anonymous   Login
Location: ????????
(38.4362°N, 22.8767°E)
Time: 14:49:06
(UTC+00:00)
Language:

Orbus 7S? - Orbit

View from above orbital plane
View from above orbital plane
View from above satellite
View from above satellite

Ground track
Ground track

The orbit data is extracted from the following two-line orbital elements,

1 22519U 92086C   24169.97738942 0.00003593  00000-0  59530-3 0    03
2 22519  56.8989 153.5858 3037439 101.1858 258.8142  9.10913968    00
Epoch (UTC): 17 June 2024 23:27:26
Eccentricity: 0.3037439
inclination: 56.8989°
perigee height: 365 km
apogee height: 6248 km
right ascension of ascending node: 153.5858°
argument of perigee: 101.1858°
revolutions per day: 9.10913968
mean anomaly at epoch: 258.8142°
orbit number at epoch: 0

The dashed part of the orbit path shows where the satellite is in the earth's shadow,  

DLR